Tracking 17636 objects as of 30-April-2016
HD Live streaming from Space Station
objects crossing your sky now

SL-8 DEB

Track SL-8 DEB now!
10-day predictions


NORAD ID: 18545
Int'l Code: 1986-100C
Perigee: 891.7 km
Apogee: 910.1 km
Inclination: 82.9 °
Period: 102.9 minutes
Semi major axis: 7271 km
RCS: 0.0131 m2 (small)
Launch date: December 17, 1986
Source: Commonwealth of Independent States (former USSR) (CIS)
Launch site: PLESETSK MISSILE AND SPACE COMPLEX (PKMTR)

Note: This is SATELLITE DEBRIS
Your satellite tracking list
Your tracking list is empty





NASA's NSSDC Master Catalog

Two Line Element Set (TLE):
1 18545U 86100C   16120.10179825  .00000727  00000-0  46755-3 0  9997
2 18545  82.9259 142.4348 0012672 260.2086 154.7374 14.01884947485934
Source of the keplerian elements: AFSPC

N2YO: 274